Regional Weather Roundup
Issued by NWS Sterling, VA

Home | Current Version | Previous Version | Graphics & Text | Print | Product List | Glossary On
Versions: 1 2 3 4 5 6 7 8 9 10 11 12 13 14 15 16 17 18 19 20 21 22 23 24 25 26 27 28 29 30 31 32 33 34 35 36 37 38 39 40 41 42 43 44 45 46 47 48 49 50
000
ASUS41 KLWX 220210
RWRLWX

REGIONAL WEATHER ROUNDUP
NATIONAL WEATHER SERVICE BALTIMORE MD/WASHINGTON DC
1000 PM EDT MON JUL 21 2014

Note: "FAIR" indicates few or no clouds below 12,000 feet
with no significant weather and/or obstructions to visibility.
 TC=TEMPERATURE CELSIUS

 * =Non NWS site. Station does not report precipitation (e.g. rain,
    snow, etc.), thunder, or fog.

DCZ001-MDZ009-015-VAZ040>042-051-053>054-220300-
WASHINGTON METRO
  /KDAA//-FT BELVOIR

CITY           SKY/WX    TMP DP  RH WIND       PRES   REMARKS
WASHINGTON NAT MOCLDY    78  64  61 S5        30.18R
DULLES         PTCLDY    73  67  81 S5        30.18R
ANDREWS AFB    PTCLDY    72  66  82 SE6       30.18R
QUANTICO       PTCLDY    77  69  76 SE9       30.18R
COLLEGE PARK*  PTCLDY    73  68  83 CALM      30.17R
LEESBURG*      PTCLDY    75  70  83 S3        30.19R
MANASSAS*      PTCLDY    73  70  88 CALM      30.17R
GAITHERSBURG*  PTCLDY    72  64  78 SE3       30.22R

$$

MDZ006>007-011-014-220300-
BALTIMORE METRO

CITY           SKY/WX    TMP DP  RH WIND       PRES   REMARKS
BWI AIRPORT    MOCLDY    74  66  76 SE3       30.17R
MD SCIENCE CTR   N/A     79  66  64 MISG      30.17R
MARTIN STATE   PTCLDY    75  72  88 CALM      30.18R
ANNAPOLIS      PTCLDY    76  68  76 S3        30.17R
FORT MEADE*    PTCLDY    68  64  88 CALM      30.19S

$$

MDZ012-015-019>023-220300-
MARYLAND EASTERN SHORE

CITY           SKY/WX    TMP DP  RH WIND       PRES   REMARKS
OCEAN CITY     MOCLDY    67  65  93 CALM      30.19R
SALISBURY      NOT AVBL
BAY BRIDGE AP*   N/A     77  68  73 CALM      30.18R
CAMBRIDGE*     PTCLDY    77  70  78 SE6       30.18R

$$

MDZ017>025-220300-
SOUTHERN MARYLAND

CITY           SKY/WX    TMP DP  RH WIND       PRES   REMARKS
PATUXENT RIVER MOCLDY    74  68  81 S7        30.17R
ST INIGOES     MOCLDY    74  67  78 SE3       30.17R
LEONARDTOWN*   MOCLDY    72  66  83 CALM      30.19R

$$

MDZ003>005-220300-
NORTH CENTRAL MARYLAND

CITY           SKY/WX    TMP DP  RH WIND       PRES   REMARKS
FREDERICK*     PTCLDY    73  70  88 E3        30.20R
HAGERSTOWN APT CLEAR     75  67  76 SE3       30.18R
WESTMINSTER*   PTCLDY    73  70  88 CALM      30.20R

$$

MDZ501>502-220300-
WESTERN MARYLAND

CITY           SKY/WX    TMP DP  RH WIND       PRES   REMARKS
OAKLAND*       CLOUDY    68 N/A N/A SE10      30.25R
CUMBERLAND*    PTCLDY    73  72  94 CALM      30.20R

$$

VAZ025>031-220300-
SHENANDOAH VALLEY

CITY           SKY/WX    TMP DP  RH WIND       PRES   REMARKS
WINCHESTER*    CLOUDY    73  68  83 S3        30.18R
STAUNTON*      CLOUDY    74  67  79 CALM      30.21R

$$

WVZ021-048>050-054>055-220300-
EASTERN WEST VIRGINIA PANHANDLE

CITY           SKY/WX    TMP DP  RH WIND       PRES   REMARKS
MARTINSBURG    MOCLDY    75  67  76 CALM      30.18R
PETERSBURG*    MOCLDY    75  62  64 CALM      30.17R

$$

VAZ036>039-050-220300-
CENTRAL FOOTHILLS

CITY           SKY/WX    TMP DP  RH WIND       PRES   REMARKS
CHARLOTTESVILL CLOUDY    73  71  93 CALM      30.18R
ORANGE*        MOCLDY    72  70  94 CALM      30.19R

$$

VAZ055>057-220300-
NORTH AND CENTRAL PIEDMONT

CITY           SKY/WX    TMP DP  RH WIND       PRES   REMARKS
FREDERICKSBRG* MOCLDY    75  70  83 SE3       30.17R
STAFFORD*      MOCLDY    72  72 100 CALM      30.21R

$$

NCZ024-NYZ072-PAZ021-071-VAZ022-071-220300-
OTHER REGIONAL OBSERVATIONS

CITY           SKY/WX    TMP DP  RH WIND       PRES   REMARKS
NEW YORK CITY  CLEAR     74  61  63 CALM      30.20R
PHILADELPHIA   PTCLDY    75  59  57 S7        30.18R
PITTSBURGH     PTCLDY    79  68  69 NE3       30.14R
ROANOKE        MOCLDY    74  69  85 SE6       30.21R
RICHMOND       CLOUDY    75  71  87 SE3       30.17R
RALEIGH        CLOUDY    74  70  87 CALM      30.16R

$$

ANZ530>537-220300-
MARINE OBSERVATIONS

STATION/POSITION TIME  TEMP    WIND        PRES
                       AIR SEA DIR/SP/G
                 (UTC) (F)     (DEG/KT/KT) (MB)
THOMAS PT LIGHT  0200   78 79  180/ 10/ 10 1022.2R
BALT KEY BRIDGE  0200   79     200/  3/  4 1021.4R
COVE POINT       0200   76     180/ 13/ 14 1021.6R
LEWISETTA        0200   76 80  170/  4/  5 1021.5R
SOLOMONS ISLAND  0200      81                N/A
PINEY POINT      0200          160/ 11/ 12   N/A

$$



USA.gov is the U.S. government's official web portal to all federal, state and local government web resources and services.